vACC Молдова

Лого vACC Молдова
Руководитель региона

Diomed Tintiuc

Инструкторы региона
Diomed Tintiuc (Instructor)
Включает в себя

РПИ Кишинев

Диспетчеры региона

Диспетчер Рейтинг Допуски *
Vanya Bitca Student LUKK_GND

Аэропорты региона

ICAO Город Название Погода
LUKK Кишинев Кишинев LUKK 020100Z 30002KT CAVOK 17/13 Q1017 NOSIG